Weather History for KCMY - March, 2014

Change the Weather History Date:

Saturday, March 8, 2014

  Actual Average Record
Temperature  
Mean Temperature 22 °F -  
Max Temperature 31 °F 38 °F - (-1)
Min Temperature 12 °F 17 °F - (-1)
Degree Days  
Heating Degree Days 44    
Moisture  
Dew Point 14 °F    
Average Humidity 64    
Maximum Humidity 89    
Minimum Humidity 43    
Precipitation  
Precipitation 0.00 in - - ()
Sea Level Pressure  
Sea Level Pressure 30.22 in    
Wind  
Wind Speed 6 mph (NNW)    
Max Wind Speed 14 mph    
Max Gust Speed 18 mph    
Visibility 10 miles    
Events      
Averages and records for this station are not official NWS values.
T = Trace of Precipitation, MM = Missing Value Source: NWS Daily Summary

Daily Weather History Graph

Daily Weather History Graph

Search for Another Location

Airport or City:

Trip Planner

Search our weather history database for the weather conditions in past years. The results will help you decide how hot, cold, wet, or windy it might be!

Date:

Astronomy

Mar. 08, 2014 Rise Set
Actual Time 6:27 AM CST 6:00 PM CST
Civil Twilight 5:58 AM CST 6:29 PM CST
Nautical Twilight 5:25 AM CST 7:02 PM CST
Astronomical Twilight 4:51 AM CST 7:36 PM CST
Moon 10:56 AM CST (3/8) 1:11 AM CST (3/8)
Length of Visible Light 12h 30m
Length of Day
11h 32m
First Quarter, 52% of the Moon is Illuminated
Mar 8
First Quarter
Mar 16
Full
Mar 23
Last Quarter
Mar 30
New
Apr 7
First Quarter

Hourly Weather History & Observations

Time (CST) Temp. Windchill Dew Point Humidity Pressure Visibility Wind Dir Wind Speed Gust Speed Precip Events Conditions
12:15 AM 31.8 °F 28.5 °F 23.7 °F 72% 30.09 in 10.0 mi North 3.5 mph - N/A   Overcast
12:35 AM 31.5 °F 25.8 °F 23.5 °F 73% 30.10 in 10.0 mi NNE 5.8 mph - N/A   Overcast
12:55 AM 31.1 °F 26.4 °F 23.4 °F 73% 30.10 in 10.0 mi North 4.6 mph - N/A   Overcast
1:15 AM 30.7 °F 24.9 °F 23.7 °F 75% 30.11 in 10.0 mi North 5.8 mph - N/A   Overcast
1:35 AM 31.3 °F 25.6 °F 23.9 °F 74% 30.12 in 10.0 mi North 5.8 mph - N/A   Overcast
1:55 AM 31.1 °F 27.7 °F 24.1 °F 75% 30.12 in 10.0 mi NNE 3.5 mph - N/A   Overcast
2:15 AM 31.1 °F 23.7 °F 23.9 °F 75% 30.12 in 10.0 mi North 8.1 mph - N/A   Overcast
2:35 AM 31.1 °F 24.5 °F 24.6 °F 77% 30.12 in 10.0 mi NNE 6.9 mph - N/A   Overcast
2:55 AM 30.0 °F 22.4 °F 23.7 °F 77% 30.13 in 10.0 mi North 8.1 mph 16.1 mph N/A   Overcast
3:15 AM 29.3 °F 21.5 °F 23.4 °F 78% 30.14 in 10.0 mi North 8.1 mph - N/A   Overcast
3:35 AM 28.4 °F 19.1 °F 21.2 °F 74% 30.15 in 10.0 mi North 10.4 mph 17.3 mph N/A   Overcast
3:55 AM 27.3 °F 16.6 °F 19.0 °F 71% 30.16 in 10.0 mi NNE 12.7 mph - N/A   Overcast
4:15 AM 26.6 °F 16.8 °F 17.4 °F 68% 30.16 in 10.0 mi North 10.4 mph 17.3 mph N/A   Overcast
4:35 AM 26.2 °F 18.6 °F 16.7 °F 67% 30.18 in 10.0 mi North 6.9 mph - N/A   Overcast
4:55 AM 25.3 °F 13.6 °F 15.8 °F 67% 30.18 in 10.0 mi North 13.8 mph 18.4 mph N/A   Overcast
5:15 AM 24.1 °F 13.1 °F 13.8 °F 65% 30.20 in 10.0 mi NNE 11.5 mph 18.4 mph N/A   Overcast
5:35 AM 23.4 °F 15.2 °F 13.3 °F 65% 30.21 in 10.0 mi North 6.9 mph - N/A   Overcast
5:55 AM 23.0 °F 13.9 °F 12.9 °F 65% 30.22 in 10.0 mi NNE 8.1 mph - N/A   Overcast
6:15 AM 22.5 °F 11.1 °F 12.0 °F 64% 30.23 in 10.0 mi North 11.5 mph - N/A   Overcast
6:35 AM 21.9 °F 12.5 °F 11.8 °F 65% 30.23 in 10.0 mi North 8.1 mph - N/A   Overcast
6:55 AM 21.6 °F 12.1 °F 12.0 °F 67% 30.24 in 10.0 mi North 8.1 mph - N/A   Overcast
7:15 AM 21.6 °F 11.3 °F 12.2 °F 67% 30.25 in 10.0 mi North 9.2 mph - N/A   Overcast
7:35 AM 21.2 °F 11.7 °F 12.2 °F 68% 30.25 in 10.0 mi North 8.1 mph - N/A   Overcast
7:55 AM 21.2 °F 13.6 °F 11.8 °F 67% 30.27 in 10.0 mi North 5.8 mph - N/A   Overcast
8:15 AM 21.6 °F 12.1 °F 11.8 °F 66% 30.26 in 10.0 mi NNE 8.1 mph - N/A   Overcast
8:35 AM 21.6 °F 13.0 °F 11.8 °F 66% 30.27 in 10.0 mi North 6.9 mph - N/A   Overcast
8:55 AM 22.1 °F 14.7 °F 11.7 °F 64% 30.27 in 10.0 mi North 5.8 mph - N/A   Overcast
9:15 AM 22.8 °F 14.5 °F 11.1 °F 61% 30.27 in 10.0 mi North 6.9 mph - N/A   Overcast
9:35 AM 23.5 °F 15.4 °F 11.5 °F 60% 30.27 in 10.0 mi North 6.9 mph - N/A   Scattered Clouds
9:55 AM 24.4 °F 14.9 °F 10.9 °F 57% 30.29 in 10.0 mi North 9.2 mph - N/A   Clear
10:15 AM 25.2 °F 19.5 °F 11.3 °F 56% 30.28 in 10.0 mi North 4.6 mph - N/A   Clear
10:35 AM 25.7 °F 21.5 °F 10.2 °F 52% 30.28 in 10.0 mi NE 3.5 mph - N/A   Clear
10:55 AM 27.1 °F 18.2 °F 11.5 °F 52% 30.28 in 10.0 mi North 9.2 mph - N/A   Clear
11:15 AM 27.0 °F 19.5 °F 10.8 °F 51% 30.27 in 10.0 mi North 6.9 mph - N/A   Clear
11:35 AM 27.3 °F 20.9 °F 10.2 °F 49% 30.28 in 10.0 mi NNW 5.8 mph - N/A   Clear
11:55 AM 28.2 °F 21.0 °F 10.8 °F 48% 30.28 in 10.0 mi NW 6.9 mph - N/A   Clear
12:15 PM 28.4 °F 21.2 °F 11.3 °F 49% 30.27 in 10.0 mi WNW 6.9 mph - N/A   Clear
12:35 PM 29.1 °F 22.1 °F 11.3 °F 47% 30.25 in 10.0 mi NW 6.9 mph - N/A   Clear
12:50 PM 29.7 °F 22.8 °F 11.8 °F 48% 30.25 in 10.0 mi NNW 6.9 mph - N/A   Clear
1:15 PM 30.7 °F 24.9 °F 11.7 °F 45% 30.24 in 10.0 mi North 5.8 mph - N/A   Clear
1:35 PM 30.7 °F 23.3 °F 12.2 °F 46% 30.24 in 10.0 mi West 8.1 mph - N/A   Clear
1:55 PM 30.9 °F 22.8 °F 12.0 °F 46% 30.24 in 10.0 mi NNW 9.2 mph - N/A   Clear
2:15 PM 31.3 °F 25.6 °F 11.1 °F 43% 30.23 in 10.0 mi NNW 5.8 mph - N/A   Clear
2:30 PM 31.1 °F 24.5 °F 11.3 °F 44% 30.23 in 10.0 mi NW 6.9 mph - N/A   Clear
2:55 PM 31.1 °F 23.7 °F 10.9 °F 43% 30.23 in 10.0 mi West 8.1 mph - N/A   Clear
3:15 PM 31.3 °F 23.9 °F 11.8 °F 45% 30.23 in 10.0 mi West 8.1 mph - N/A   Clear
3:35 PM 31.5 °F 26.8 °F 12.2 °F 45% 30.22 in 10.0 mi NW 4.6 mph - N/A   Clear
3:55 PM 31.8 °F 24.6 °F 12.9 °F 46% 30.23 in 10.0 mi NW 8.1 mph - N/A   Clear
4:15 PM 31.8 °F 26.2 °F 12.9 °F 46% 30.22 in 10.0 mi WNW 5.8 mph - N/A   Clear
4:35 PM 31.6 °F 25.1 °F 13.5 °F 47% 30.22 in 10.0 mi NW 6.9 mph - N/A   Clear
4:55 PM 31.1 °F 23.7 °F 13.8 °F 49% 30.23 in 10.0 mi WNW 8.1 mph - N/A   Clear
5:15 PM 30.9 °F 24.3 °F 13.3 °F 48% 30.23 in 10.0 mi West 6.9 mph - N/A   Clear
5:35 PM 30.2 °F 25.4 °F 13.5 °F 50% 30.24 in 10.0 mi WNW 4.6 mph - N/A   Clear
5:55 PM 29.1 °F 25.4 °F 14.0 °F 53% 30.24 in 10.0 mi WNW 3.5 mph - N/A   Clear
6:15 PM 27.1 °F 23.2 °F 14.2 °F 58% 30.23 in 10.0 mi West 3.5 mph - N/A   Clear
6:35 PM 25.9 °F - 13.5 °F 59% 30.24 in 10.0 mi Calm Calm - N/A   Clear
6:55 PM 23.2 °F - 13.8 °F 67% 30.23 in 10.0 mi Calm Calm - N/A   Clear
7:15 PM 21.7 °F - 13.8 °F 72% 30.24 in 10.0 mi Calm Calm - N/A   Clear
7:30 PM 20.1 °F - 13.6 °F 76% 30.23 in 10.0 mi Calm Calm - N/A   Clear
7:55 PM 19.2 °F - 13.1 °F 77% 30.24 in 10.0 mi Calm Calm - N/A   Clear
8:15 PM 18.3 °F - 13.1 °F 80% 30.24 in 10.0 mi Calm Calm - N/A   Clear
8:35 PM 18.1 °F - 12.9 °F 80% 30.24 in 10.0 mi Calm Calm - N/A   Clear
8:55 PM 16.9 °F - 12.4 °F 82% 30.24 in 10.0 mi Calm Calm - N/A   Clear
9:15 PM 15.6 °F - 11.8 °F 85% 30.24 in 10.0 mi Calm Calm - N/A   Clear
9:35 PM 14.5 °F - 10.8 °F 85% 30.24 in 10.0 mi Calm Calm - N/A   Clear
9:55 PM 14.0 °F - 10.6 °F 86% 30.25 in 10.0 mi Calm Calm - N/A   Clear
10:15 PM 14.0 °F - 10.6 °F 86% 30.24 in 10.0 mi Calm Calm - N/A   Clear
10:35 PM 13.6 °F - 10.2 °F 86% 30.24 in 10.0 mi Calm Calm - N/A   Clear
10:55 PM 12.7 °F - 9.9 °F 88% 30.22 in 10.0 mi Calm Calm - N/A   Clear
11:15 PM 12.7 °F - 10.0 °F 89% 30.23 in 10.0 mi Calm Calm - N/A   Clear
11:35 PM 12.6 °F - 9.9 °F 89% 30.22 in 10.0 mi Calm Calm - N/A   Clear
11:55 PM 12.4 °F - 9.5 °F 88% 30.22 in 10.0 mi Calm Calm - N/A   Clear